Miscellaneous Local Product
Issued by NWS Hastings, NE

Home | Current Version | Previous Version | Graphics & Text | Print | Product List | Glossary On
Versions: 1 2 3 4 5 6 7 8 9 10 11 12 13 14 15 16 17 18 19 20 21 22 23 24 25 26 27 28 29 30 31 32 33 34 35 36 37 38 39 40 41 42 43 44 45 46 47 48 49 50
000
AXUS43 KGID 272302
MISGRI

GID CWA HOURLY WEATHER ROUNDUP
NATIONAL WEATHER SERVICE HASTINGS NE
600 PM CDT MON APR 27 2015

NOTE: "FAIR" INDICATES FEW OR NO CLOUDS BELOW 12,000 FEET WITH NO
SIGNIFICANT WEATHER AND/OR OBSTRUCTIONS TO VISIBILITY.

...SOUTH CENTRAL NEBRASKA...

CITY           SKY/WX    TMP DP  RH WIND       PRES   REMARKS
GRAND ISLAND   MOSUNNY   67  27  22 NE13      30.13F
HASTINGS       CLOUDY    63  32  31 NE13      30.13F
KEARNEY        CLOUDY    64  36  34 NE15      30.14F
ORD            MOSUNNY   66  29  24 N14       30.14F
YORK           MOSUNNY   66  30  26 NE14      30.13S
AURORA         MOSUNNY   67  30  25 NE16      30.13S
LEXINGTON      CLOUDY    64  35  33 NE12G17   30.15S
HOLDREGE       CLOUDY    63  32  31 NE15      30.14F
HEBRON         CLOUDY    65  25  21 NE13      30.11S

...NEBRASKA PANHANDLE...

CITY           SKY/WX    TMP DP  RH WIND       PRES   REMARKS
CHADRON        CLOUDY    51  43  74 NW12      30.28S
ALLIANCE       CLOUDY    57  41  55 NE12      30.23R
SCOTTSBLUFF    CLOUDY    56  42  59 N9        30.25S
SIDNEY         PTSUNNY   56  36  47 NE13      30.24F

...WESTERN AND NORTH CENTRAL NEBRASKA...

CITY           SKY/WX    TMP DP  RH WIND       PRES   REMARKS
VALENTINE      PTSUNNY   65  40  39 N18G26    30.19S
AINSWORTH      SUNNY     68  32  26 NE9G18    30.18S
ONEILL         SUNNY     67  32  27 NE7       30.17S
BROKEN BOW     PTSUNNY   68  30  24 NE14      30.15S
IMPERIAL       PTSUNNY   60  32  34 NE8       30.19S
NORTH PLATTE   PTSUNNY   66  32  28 NE13      30.17S
MCCOOK         PTSUNNY   66  33  29 NE12      30.15F

...EASTERN NEBRASKA...

CITY           SKY/WX    TMP DP  RH WIND       PRES   REMARKS
NORFOLK        SUNNY     69  24  18 NE12      30.13F
SO SIOUX CITY  MOSUNNY   71  22  15 NE9       30.13F
TEKAMAH        MOSUNNY   71  28  20 NE13      30.11F
COLUMBUS       SUNNY     68  28  22 NE12      30.15S
ALBION         SUNNY     68  29  23 N12       30.13F
OMAHA EPPLEY   PTSUNNY   70  30  22 NE15      30.10F
OFFUTT AFB     SUNNY     69  30  23 NE8       30.09F
MILLARD        SUNNY     69  31  24 N7        30.10F
LINCOLN        SUNNY     67  31  26 NE16      30.12F
NEBRASKA CITY  SUNNY     67  21  17 NE8       30.10S
BEATRICE       MOSUNNY   66  31  27 NE13G20   30.10F
FALLS CITY     MOSUNNY   67  32  27 E16       30.07F

...NORTHERN KANSAS...

CITY           SKY/WX    TMP DP  RH WIND       PRES   REMARKS
GOODLAND       PTSUNNY   58  31  35 NE15G24   30.18S
HILL CITY      MOSUNNY   62  32  32 NE18G25   30.14S
NORTON         CLEAR     63  28  27 NE13G20   30.13F
PHILLIPSBURG   SUNNY     64  36  34 N15G21    30.13F
SMITH CENTER   SUNNY     64  30  27 NE14G22   30.12F
BELOIT         SUNNY     63  34  34 NE14      30.10S
HAYS           SUNNY     63  34  34 NE20G26   30.10S
RUSSELL        SUNNY     63  34  33 NE20G31   30.08F
CONCORDIA      PTSUNNY   63  33  32 NE12G23   30.09F
SALINA         MOSUNNY   65  34  31 NE17G24   30.07S
TOPEKA         MOSUNNY   66  34  30 NE16      30.06S



USA.gov is the U.S. government's official web portal to all federal, state and local government web resources and services.